Flag for India Weather past 2 weeks in Ahmedabad, Gujarat, India

Now
108 °F

Clear.


Feels Like: 108 °F
Forecast: 79 / 108 °F
Wind: 5 mph from North

Location: Ahmadabad Airport

Current Time: May 3, 2015 at 2:19:53 PM

Latest Report: May 3, 2015 at 1:10 PM


Visibility: 4 mi

Pressure: 29.74 "Hg

Humidity: 19%

Dew point: 57 °F

Location of AhmedabadLocation

Historic Weather in Ahmedabad — Graph

°F

Ahmedabad temperature yesterday

Maximum temperature yesterday: 113 °F (at 3:10 PM)
Minimum temperature yesterday: 82 °F (at 5:10 AM)
Average temperature yesterday: 96 °F

Past Weeks' High & Low Weather Summary

 TemperatureHumidityPressure
High113 °F (Apr 18, 2:40 PM)75% (May 1, 12:40 AM)29.83 "Hg (May 1, 12:40 AM)
Low77 °F (Apr 23, 6:10 AM)9% (May 2, 4:40 PM)29.56 "Hg (Apr 18, 5:10 PM)
Average95 °F35%29.73 "Hg
* Reported Apr 18 1:10 PM — May 3 1:10 PM, Ahmedabad, Weather by CustomWeather, © 2015

Note: Actual official high and low records may vary slightly from our data, if they occured in-between our weather recording intervals... More about our weather records

Advertising

Ahmedabad weather history for previous 24 hours

 ConditionsComfort  
Time TempWeatherWind HumidityBarometerVisibility
1:10 PM
Sun, May 3
108 °FClear.5 mph19%29.74 "Hg4 mi
12:40 PM106 °FClear.5 mph23%29.74 "Hg4 mi
12:10 PM102 °FClear.3 mph26%29.77 "Hg4 mi
11:10 AM99 °FClear.5 mph33%29.80 "Hg3 mi
10:40 AM97 °FClear.3 mph34%29.80 "Hg3 mi
10:10 AM95 °FClear.3 mph39%29.80 "Hg3 mi
9:40 AM93 °FClear.6 mph41%29.80 "Hg3 mi
8:40 AM88 °FClear.5 mph46%29.80 "Hg2 mi
8:10 AM88 °FClear.5 mph43%29.80 "Hg2 mi
7:40 AM86 °FClear.3 mph46%29.80 "Hg2 mi
7:10 AM84 °FClear.No wind45%29.77 "Hg2 mi
6:40 AM82 °FClear.3 mph48%29.74 "Hg2 mi
7:40 PM
Sat, May 2
100 °FClear.No wind15%29.65 "Hg2 mi
5:40 PM109 °FClear.5 mph12%29.62 "Hg4 mi
5:10 PM111 °FClear.6 mph11%29.62 "Hg4 mi
4:40 PM113 °FClear.6 mph9%29.62 "Hg4 mi
3:40 PM113 °FClear.8 mph11%29.65 "Hg4 mi
3:10 PM113 °FClear.8 mph10%29.65 "Hg4 mi
2:40 PM111 °FClear.3 mph14%29.68 "Hg4 mi
Weather by CustomWeather, © 2015

See weather overviewHow to use our weather pages